Starlink 11248

operational
NORAD ID: 60914 Int'l Des: 2024-154 Owner: SPXS Country: US Constellation: starlink
LEOCIRCULAR

Starlink 11248について

説明を読み込み中...

リアルタイム位置

3D地球を読み込み中...

次回通過

高度履歴

Altitude vs Time

uPlot chart will show altitude changes over time

軌道要素

1 60914U 24154M 25351.58336806 .00352300 60624-4 85445-3 0 9995
2 60914 53.1390 171.1432 0005265 229.8994 145.2479 15.95792545 5855
Epoch: Dec 17, 2025 • Age: 10 hours

現在のステータス

高度 289.0 km
速度 7.73 km/s
衛星直下点 -6.93°S, 70.5°E
打ち上げ日 Aug 31, 2024
運用期間 1.2 years
タイプ internet

技術仕様

分類 Payload
質量 960.00 kg
乾燥質量 910.00 kg
総質量 960.00 kg
長さ 0.30 m
直径 4.10 m
スパン 29.00 m
形状 Box + pan
製造者 SPXS
バスタイプ Starlink V2MD
フェーズステータス In Orbit
所有者/国 SPXS/US

大規模コンステレーション

Loading constellations...